Location: Le Rouget
(44.8538°N, 2.2328°E)
Time: 20:44:23
(UTC+00:00)

USA 234 - Pass Details

Date: 15 May 2026
Orbit: 1102 x 1106 km, 123.0° (Epoch: 4 January)

Event Time Altitude Azimuth Distance (km) Brightness Sun altitude
Rises 22:41:08 0° 54° (NE) 3,925 6.4 -24.3°
Reaches altitude 10° 22:43:48 10° 61° (ENE) 2,964 5.6 -24.5°
Enters shadow 22:49:36 41° 123° (ESE) 1,546 3.7 -24.8°
